Weather History for Pope Field Airport, NC

Change the Weather History Date:

Monday, September 16, 2013

  Actual Average Record
Temperature  
Mean Temperature 78 °F -  
Max Temperature 89 °F 84 °F 93 °F (1991)
Min Temperature 68 °F 64 °F 45 °F (1985)
Cooling Degree Days 14    
Growing Degree Days 28 (Base 50)    
Moisture  
Dew Point 67 °F    
Average Humidity 81    
Maximum Humidity 95    
Minimum Humidity 37    
Precipitation  
Precipitation 0.01 in - - ()
Sea Level Pressure  
Sea Level Pressure 30.12 in    
Wind  
Wind Speed 4 mph (NW)    
Max Wind Speed 13 mph    
Max Gust Speed -    
Visibility 10 miles    
Events Rain    
Averages and records for this station are not official NWS values.
T = Trace of Precipitation, MM = Missing Value Source: NWS Daily Summary

Daily Weather History Graph

Daily Weather History Graph

Search for Another Location

Airport:

Trip Planner

Search our weather history database for the weather conditions in past years. The results will help you decide how hot, cold, wet, or windy it might be!

Date:

Astronomy

Sep. 16, 2013 Rise Set
Actual Time 6:59 AM EDT 7:21 PM EDT
Civil Twilight 6:34 AM EDT 7:46 PM EDT
Nautical Twilight 6:04 AM EDT 8:16 PM EDT
Astronomical Twilight 5:34 AM EDT 8:46 PM EDT
Moon 5:24 PM EDT (9/16) 3:49 AM EDT (9/16)
Length of Visible Light 13h 12m
Length of Day
12h 21m
Waxing Gibbous, 90% of the Moon is Illuminated
Sep 16
Waxing Gibbous
Sep 19
Full
Sep 26
Last Quarter
Oct 4
New
Oct 11
First Quarter

Hourly Weather History & Observations

Time (EDT) Temp. Heat Index Dew Point Humidity Pressure Visibility Wind Dir Wind Speed Gust Speed Precip Events Conditions
12:58 AM 72.5 °F - 67.8 °F 85% 30.15 in 10.0 mi South 3.5 mph - N/A   Clear
1:58 AM 71.6 °F - 67.8 °F 88% 30.15 in 10.0 mi Variable 1.2 mph - N/A   Clear
2:58 AM 70.7 °F - 67.8 °F 91% 30.14 in 10.0 mi Variable 1.2 mph - N/A   Clear
3:58 AM 70.3 °F - 67.6 °F 91% 30.14 in 10.0 mi NE 1.2 mph - N/A   Mostly Cloudy
4:58 AM 71.2 °F - 68.9 °F 92% 30.12 in 10.0 mi South 2.3 mph - N/A   Mostly Cloudy
5:58 AM 71.1 °F - 68.7 °F 92% 30.12 in 10.0 mi SW 3.5 mph - N/A   Partly Cloudy
6:18 AM 69.8 °F - 68.0 °F 94% 30.11 in 10.0 mi Variable 1.2 mph - N/A   Mostly Cloudy
6:38 AM 68.0 °F - 66.2 °F 94% 30.11 in 10.0 mi ENE 1.2 mph - N/A   Mostly Cloudy
6:48 AM 68.0 °F - 66.2 °F 94% 30.12 in 10.0 mi Calm Calm - N/A   Mostly Cloudy
6:53 AM 69.8 °F - 68.0 °F 94% 30.12 in 10.0 mi Variable 5.8 mph - N/A   Mostly Cloudy
6:58 AM 69.4 °F - 68.0 °F 95% 30.13 in 10.0 mi NNW 2.3 mph - N/A   Mostly Cloudy
7:02 AM 69.8 °F - 68.0 °F 94% 30.12 in 10.0 mi WNW 6.9 mph - N/A   Mostly Cloudy
7:04 AM 69.8 °F - 68.0 °F 94% 30.12 in 10.0 mi WNW 1.2 mph - N/A Rain Light Rain
7:09 AM 69.8 °F - 68.0 °F 94% 30.12 in 10.0 mi SSW 2.3 mph - N/A Rain Light Rain
7:14 AM 69.8 °F - 68.0 °F 94% 30.12 in 10.0 mi SSW 2.3 mph - N/A   Mostly Cloudy
7:19 AM 69.8 °F - 68.0 °F 94% 30.13 in 10.0 mi NW 2.3 mph - N/A   Scattered Clouds
7:30 AM 69.8 °F - 68.0 °F 94% 30.13 in 10.0 mi WNW 3.5 mph - N/A   Mostly Cloudy
7:35 AM 69.8 °F - 68.0 °F 94% 30.13 in 10.0 mi West 2.3 mph - N/A   Mostly Cloudy
7:40 AM 69.8 °F - 68.0 °F 94% 30.13 in 10.0 mi West 2.3 mph - N/A   Mostly Cloudy
7:51 AM 69.8 °F - 68.0 °F 94% 30.13 in 10.0 mi West 2.3 mph - N/A   Overcast
7:58 AM 69.8 °F - 68.4 °F 95% 30.14 in 10.0 mi West 3.5 mph - 0.00 in   Overcast
8:13 AM 69.8 °F - 68.0 °F 94% 30.13 in 10.0 mi Variable 2.3 mph - N/A Rain Light Rain
8:18 AM 71.6 °F - 68.0 °F 88% 30.13 in 10.0 mi WNW 2.3 mph - N/A Rain Light Rain
8:29 AM 71.6 °F - 69.8 °F 94% 30.13 in 10.0 mi NW 2.3 mph - N/A   Light Drizzle
8:30 AM 71.6 °F - 69.8 °F 94% 30.13 in 10.0 mi NNW 3.5 mph - N/A   Mostly Cloudy
8:35 AM 71.6 °F - 69.8 °F 94% 30.13 in 10.0 mi NNW 3.5 mph - N/A   Overcast
8:55 AM 71.6 °F - 69.8 °F 94% 30.13 in 10.0 mi NW 5.8 mph - N/A   Overcast
8:58 AM 71.4 °F - 69.6 °F 94% 30.15 in 10.0 mi NW 6.9 mph - 0.00 in   Overcast
9:03 AM 71.6 °F - 69.8 °F 94% 30.14 in 10.0 mi WNW 4.6 mph - N/A   Overcast
9:18 AM 71.6 °F - 69.8 °F 94% 30.14 in 4.0 mi Variable 2.3 mph - N/A Rain Light Rain
9:30 AM 71.6 °F - 69.8 °F 94% 30.14 in 8.0 mi West 4.6 mph - N/A   Overcast
9:58 AM 73.6 °F - 71.6 °F 93% 30.15 in 10.0 mi West 5.8 mph - 0.01 in   Overcast
10:18 AM 75.2 °F - 71.6 °F 89% 30.14 in 10.0 mi West 5.8 mph - N/A   Overcast
10:23 AM 75.2 °F - 71.6 °F 89% 30.14 in 10.0 mi West 5.8 mph - N/A   Mostly Cloudy
10:38 AM 77.0 °F - 71.6 °F 83% 30.14 in 10.0 mi Variable 4.6 mph - N/A   Scattered Clouds
10:58 AM 79.0 °F - 71.8 °F 78% 30.14 in 10.0 mi WNW 5.8 mph - N/A   Partly Cloudy
11:18 AM 80.6 °F 84.6 °F 71.6 °F 74% 30.13 in 10.0 mi NW 6.9 mph - N/A   Mostly Cloudy
11:23 AM 80.6 °F 84.6 °F 71.6 °F 74% 30.12 in 10.0 mi WNW 8.1 mph - N/A   Mostly Cloudy
11:28 AM 80.6 °F 84.6 °F 71.6 °F 74% 30.12 in 10.0 mi NW 6.9 mph - N/A   Mostly Cloudy
11:38 AM 82.4 °F 87.2 °F 71.6 °F 70% 30.12 in 10.0 mi NW 6.9 mph - N/A   Scattered Clouds
11:58 AM 82.4 °F 86.5 °F 70.5 °F 67% 30.13 in 10.0 mi NW 10.4 mph - N/A   Partly Cloudy
12:58 PM 84.4 °F 85.9 °F 64.4 °F 51% 30.11 in 10.0 mi Variable 5.8 mph - N/A   Scattered Clouds
1:58 PM 88.5 °F 89.2 °F 62.4 °F 42% 30.09 in 10.0 mi NNW 10.4 mph - N/A   Clear
2:58 PM 89.1 °F 88.5 °F 59.7 °F 37% 30.06 in 10.0 mi NNW 6.9 mph - N/A   Clear
3:58 PM 88.3 °F 87.8 °F 60.1 °F 38% 30.04 in 10.0 mi North 8.1 mph - N/A   Clear
4:58 PM 87.4 °F 86.7 °F 59.2 °F 38% 30.06 in 10.0 mi NNW 10.4 mph - N/A   Scattered Clouds
5:58 PM 84.6 °F 84.4 °F 59.7 °F 43% 30.06 in 10.0 mi NE 5.8 mph - N/A   Mostly Cloudy
6:58 PM 81.0 °F 81.9 °F 62.1 °F 52% 30.07 in 10.0 mi NNE 5.8 mph - N/A   Mostly Cloudy
7:58 PM 78.1 °F - 62.8 °F 59% 30.10 in 10.0 mi NE 10.4 mph - N/A   Overcast
8:58 PM 77.0 °F - 61.2 °F 58% 30.14 in 10.0 mi NE 10.4 mph - N/A   Overcast
9:58 PM 75.0 °F - 61.2 °F 62% 30.15 in 10.0 mi NE 5.8 mph - N/A   Overcast
10:58 PM 74.3 °F - 61.2 °F 63% 30.16 in 10.0 mi ENE 10.4 mph - N/A   Overcast
11:58 PM 72.5 °F - 62.1 °F 70% 30.18 in 10.0 mi ENE 12.7 mph - N/A   Overcast